| time (UTC) | temp F | wind direction | speed MPH | gust MPH | rain 1hr in | rain 24hr in | rain mn in | humidity % | barometer mb |
| 20260509114540 | 58 | 249 | 0.0 | 0.0 | 0.00 | 0.00 | 0.00 | 96 | 1009.4 |
| 20260509113017 | 57 | 249 | 0.0 | 0.0 | 0.00 | 0.00 | 0.00 | 96 | 1009.2 |
| 20260509111551 | 57 | 249 | 0.0 | 0.0 | 0.00 | 0.00 | 0.00 | 95 | 1009.0 |
| 20260509110030 | 57 | 249 | 0.0 | 0.0 | 0.00 | 0.00 | 0.00 | 94 | 1008.8 |
| 20260509104515 | 57 | 249 | 0.0 | 0.0 | 0.00 | 0.00 | 0.00 | 94 | 1008.6 |
| 20260509103101 | 58 | 249 | 0.0 | 0.0 | 0.00 | 0.00 | 0.00 | 94 | 1008.5 |
| 20260509101539 | 58 | 249 | 0.0 | 0.0 | 0.00 | 0.00 | 0.00 | 94 | 1008.6 |
| 20260509100023 | 58 | 249 | 0.0 | 0.0 | 0.00 | 0.00 | 0.00 | 94 | 1008.5 |
| 20260509094558 | 59 | 249 | 0.0 | 0.0 | 0.00 | 0.00 | 0.00 | 94 | 1008.6 |
| 20260509094507 | 59 | 249 | 0.0 | 0.0 | 0.00 | 0.00 | 0.00 | 94 | 1008.7 |
| 20260509093043 | 59 | 249 | 0.0 | 0.0 | 0.00 | 0.00 | 0.00 | 94 | 1008.6 |
| 20260509091528 | 59 | 249 | 0.0 | 0.0 | 0.00 | 0.00 | 0.00 | 94 | 1008.6 |
| 20260509090008 | 59 | 249 | 0.0 | 0.0 | 0.00 | 0.00 | 0.00 | 93 | 1008.8 |
| 20260509084550 | 59 | 249 | 0.0 | 0.0 | 0.00 | 0.00 | 0.00 | 93 | 1008.8 |
| 20260509083035 | 59 | 249 | 0.0 | 0.0 | 0.00 | 0.00 | 0.00 | 92 | 1008.9 |
| 20260509081512 | 59 | 249 | 0.0 | 0.0 | 0.00 | 0.00 | 0.00 | 93 | 1009.0 |
| 20260509080048 | 59 | 249 | 0.0 | 0.0 | 0.00 | 0.00 | 0.00 | 92 | 1009.0 |
| 20260509074532 | 59 | 249 | 0.0 | 0.0 | 0.00 | 0.00 | 0.00 | 92 | 1009.1 |
| 20260509073014 | 59 | 249 | 0.0 | 0.0 | 0.00 | 0.00 | 0.00 | 91 | 1009.1 |
| 20260509071553 | 59 | 249 | 0.0 | 0.0 | 0.00 | 0.00 | 0.00 | 90 | 1009.1 |
| 20260509070030 | 60 | 249 | 0.0 | 0.0 | 0.00 | 0.00 | 0.00 | 89 | 1008.8 |
| 20260509064510 | 60 | 249 | 0.0 | 0.0 | 0.00 | 0.00 | 0.00 | 89 | 1008.7 |
| 20260509063048 | 61 | 249 | 0.0 | 0.0 | 0.00 | 0.00 | 0.00 | 87 | 1008.7 |
| 20260509061528 | 62 | 249 | 0.0 | 0.0 | 0.00 | 0.00 | 0.00 | 85 | 1008.8 |
| 20260509060014 | 63 | 249 | 0.0 | 1.0 | 0.00 | 0.00 | 0.00 | 83 | 1008.5 |
| 20260509054602 | 63 | 249 | 1.0 | 2.0 | 0.00 | 0.00 | 0.00 | 82 | 1008.7 |
| 20260509053042 | 63 | 210 | 0.0 | 2.0 | 0.00 | 0.00 | 0.00 | 83 | 1008.2 |
| 20260509051522 | 63 | 210 | 1.0 | 3.0 | 0.00 | 0.00 | 0.00 | 84 | 1008.4 |
| 20260509050137 | 63 | 166 | 2.0 | 5.0 | 0.00 | 0.00 | 0.00 | 84 | 1008.1 |
| 20260509044552 | 63 | 188 | 1.0 | 2.0 | 0.00 | 0.00 | 0.00 | 83 | 1009.5 |
| 20260509043015 | 64 | 267 | 0.0 | 2.0 | 0.00 | 0.00 | 0.00 | 79 | 1011.1 |
| 20260509041554 | 65 | 254 | 0.0 | 0.0 | 0.00 | 0.00 | 0.00 | 74 | 1011.8 |
| 20260509040037 | 65 | 158 | 0.0 | 0.0 | 0.00 | 0.00 | 0.00 | 72 | 1010.6 |
| 20260509034512 | 64 | 158 | 0.0 | 2.0 | 0.00 | 0.00 | 0.00 | 72 | 1010.9 |
| 20260509033052 | 63 | 158 | 0.0 | 1.0 | 0.00 | 0.00 | 0.00 | 75 | 1010.9 |
| 20260509031529 | 63 | 79 | 0.0 | 0.0 | 0.00 | 0.00 | 0.00 | 74 | 1010.7 |
| 20260509030031 | 64 | 79 | 0.0 | 0.0 | 0.00 | 0.00 | 0.00 | 72 | 1010.7 |
| 20260509024600 | 64 | 79 | 0.0 | 0.0 | 0.00 | 0.00 | 0.00 | 70 | 1010.5 |
| 20260509023059 | 65 | 79 | 0.0 | 0.0 | 0.00 | 0.00 | 0.00 | 69 | 1010.2 |
| 20260509021538 | 66 | 79 | 0.0 | 1.0 | 0.00 | 0.00 | 0.00 | 67 | 1009.5 |
| 20260509020026 | 66 | 79 | 0.0 | 2.0 | 0.00 | 0.00 | 0.00 | 64 | 1008.9 |
| 20260509014507 | 67 | 79 | 0.0 | 1.0 | 0.00 | 0.00 | 0.00 | 64 | 1009.0 |
| 20260509013053 | 68 | 79 | 0.0 | 0.0 | 0.00 | 0.00 | 0.00 | 61 | 1008.8 |
| 20260509011540 | 70 | 79 | 0.0 | 2.0 | 0.00 | 0.00 | 0.00 | 58 | 1009.0 |
| 20260509010019 | 71 | 257 | 0.0 | 1.0 | 0.00 | 0.00 | 0.00 | 55 | 1009.0 |
| 20260509004523 | 72 | 257 | 0.0 | 2.0 | 0.00 | 0.00 | 0.00 | 54 | 1008.7 |
| 20260509003100 | 72 | 277 | 1.0 | 3.0 | 0.00 | 0.00 | 0.00 | 53 | 1008.7 |
| 20260509001537 | 73 | 334 | 1.0 | 3.0 | 0.00 | 0.00 | 0.00 | 51 | 1008.7 |
| 20260509000035 | 74 | 259 | 0.0 | 2.0 | 0.00 | 0.00 | 0.00 | 52 | 1008.7 |
| 20260508234503 | 73 | 159 | 0.0 | 6.0 | 0.00 | 0.00 | 0.00 | 53 | 1008.7 |
| 20260508233044 | 73 | 98 | 0.0 | 7.0 | 0.00 | 0.00 | 0.00 | 50 | 1008.7 |
| 20260508231525 | 73 | 108 | 1.0 | 5.0 | 0.00 | 0.00 | 0.00 | 53 | 1008.7 |
| 20260508230013 | 74 | 97 | 1.0 | 4.0 | 0.00 | 0.00 | 0.00 | 50 | 1008.7 |
| 20260508224600 | 74 | 273 | 0.0 | 3.0 | 0.00 | 0.00 | 0.00 | 51 | 1008.7 |
| 20260508224500 | 74 | 25 | 0.0 | 3.0 | 0.00 | 0.00 | 0.00 | 50 | 1008.6 |
| 20260508223040 | 74 | 153 | 1.0 | 8.0 | 0.00 | 0.00 | 0.00 | 52 | 1008.8 |
| 20260508221531 | 74 | 127 | 0.0 | 3.0 | 0.00 | 0.00 | 0.00 | 50 | 1008.5 |
| 20260508220006 | 75 | 15 | 0.0 | 4.0 | 0.00 | 0.00 | 0.00 | 50 | 1008.7 |
| 20260508214547 | 75 | 275 | 0.0 | 4.0 | 0.00 | 0.00 | 0.00 | 50 | 1008.8 |
| 20260508213029 | 75 | 287 | 2.0 | 7.0 | 0.00 | 0.00 | 0.00 | 52 | 1009.2 |
| 20260508211511 | 75 | 156 | 0.0 | 5.0 | 0.00 | 0.00 | 0.00 | 53 | 1009.4 |
| 20260508210051 | 75 | 296 | 1.0 | 4.0 | 0.00 | 0.00 | 0.00 | 49 | 1009.6 |
| 20260508204532 | 75 | 205 | 2.0 | 8.0 | 0.00 | 0.00 | 0.00 | 49 | 1009.7 |
| 20260508203009 | 75 | 208 | 0.0 | 4.0 | 0.00 | 0.00 | 0.00 | 48 | 1009.7 |
| 20260508201547 | 75 | 344 | 1.0 | 8.0 | 0.00 | 0.00 | 0.00 | 48 | 1010.1 |
| 20260508200032 | 76 | 317 | 1.0 | 5.0 | 0.00 | 0.00 | 0.00 | 51 | 1010.5 |
| 20260508194507 | 74 | 274 | 2.0 | 5.0 | 0.00 | 0.00 | 0.00 | 48 | 1010.9 |
| 20260508193048 | 74 | 83 | 1.0 | 4.0 | 0.00 | 0.00 | 0.00 | 50 | 1011.0 |
| 20260508191529 | 73 | 186 | 2.0 | 8.0 | 0.00 | 0.00 | 0.00 | 57 | 1011.2 |
| 20260508190007 | 73 | 61 | 3.0 | 10.0 | 0.00 | 0.00 | 0.00 | 51 | 1011.4 |
| 20260508184545 | 73 | 20 | 1.0 | 6.0 | 0.00 | 0.00 | 0.00 | 53 | 1011.7 |
| 20260508183022 | 73 | 76 | 2.0 | 6.0 | 0.00 | 0.00 | 0.00 | 52 | 1012.1 |
| 20260508181632 | 72 | 90 | 3.0 | 7.0 | 0.00 | 0.00 | 0.00 | 55 | 1012.2 |
| 20260508181502 | 72 | 130 | 3.0 | 7.0 | 0.00 | 0.00 | 0.00 | 54 | 1012.2 |
| 20260508180037 | 72 | 151 | 1.0 | 8.0 | 0.00 | 0.00 | 0.00 | 54 | 1012.5 |
| 20260508174517 | 72 | 116 | 2.0 | 10.0 | 0.00 | 0.00 | 0.00 | 59 | 1012.8 |
| 20260508173055 | 72 | 105 | 2.0 | 9.0 | 0.00 | 0.00 | 0.00 | 59 | 1012.8 |
| 20260508171537 | 72 | 154 | 2.0 | 6.0 | 0.00 | 0.00 | 0.00 | 58 | 1013.0 |
| 20260508170020 | 72 | 248 | 1.0 | 6.0 | 0.00 | 0.00 | 0.00 | 58 | 1013.5 |
| 20260508164557 | 71 | 263 | 1.0 | 8.0 | 0.00 | 0.00 | 0.00 | 60 | 1013.8 |
| 20260508163034 | 71 | 77 | 1.0 | 6.0 | 0.00 | 0.00 | 0.00 | 57 | 1014.1 |
| 20260508161523 | 71 | 86 | 2.0 | 6.0 | 0.00 | 0.00 | 0.00 | 56 | 1014.5 |
| 20260508160056 | 71 | 272 | 1.0 | 5.0 | 0.00 | 0.00 | 0.00 | 57 | 1014.4 |
| 20260508154532 | 70 | 220 | 1.0 | 8.0 | 0.00 | 0.00 | 0.00 | 65 | 1014.5 |
| 20260508153012 | 69 | 78 | 1.0 | 3.0 | 0.00 | 0.00 | 0.00 | 66 | 1014.7 |
| 20260508151601 | 68 | 271 | 1.0 | 3.0 | 0.00 | 0.00 | 0.00 | 62 | 1014.6 |
| 20260508150030 | 67 | 263 | 1.0 | 4.0 | 0.00 | 0.00 | 0.00 | 65 | 1014.6 |
| 20260508144509 | 67 | 281 | 1.0 | 6.0 | 0.00 | 0.00 | 0.00 | 64 | 1014.8 |
| 20260508143047 | 66 | 166 | 0.0 | 3.0 | 0.00 | 0.00 | 0.00 | 69 | 1014.9 |
| 20260508141522 | 65 | 109 | 2.0 | 4.0 | 0.00 | 0.00 | 0.00 | 68 | 1015.1 |
| 20260508140059 | 64 | 157 | 1.0 | 4.0 | 0.00 | 0.00 | 0.00 | 73 | 1015.3 |
| 20260508140003 | 64 | 153 | 2.0 | 4.0 | 0.00 | 0.00 | 0.00 | 72 | 1015.3 |
| 20260508134540 | 62 | 175 | 0.0 | 2.0 | 0.00 | 0.00 | 0.00 | 75 | 1015.3 |
| 20260508133021 | 61 | 208 | 0.0 | 2.0 | 0.00 | 0.00 | 0.00 | 78 | 1015.5 |
| 20260508131554 | 58 | 148 | 0.0 | 2.0 | 0.00 | 0.00 | 0.00 | 82 | 1015.5 |
| 20260508130033 | 56 | 102 | 2.0 | 3.0 | 0.00 | 0.00 | 0.00 | 86 | 1015.5 |
| 20260508124509 | 54 | 109 | 0.0 | 3.0 | 0.00 | 0.00 | 0.00 | 88 | 1015.5 |
| 20260508123055 | 53 | 141 | 1.0 | 3.0 | 0.00 | 0.00 | 0.00 | 88 | 1015.6 |
| 20260508121528 | 53 | 120 | 0.0 | 0.0 | 0.00 | 0.00 | 0.00 | 90 | 1015.3 |
| 20260508120009 | 53 | 120 | 0.0 | 2.0 | 0.00 | 0.00 | 0.00 | 89 | 1015.3 |